Terug naar catalogus

WNISAT 1R

ActiefWeerSSO
NORAD 42835·PAYLOAD·🇯🇵 Japan

Gelanceerd Jul 14, 2017 vanaf Baikonur Cosmodrome

Loading…

Volgende Passages (komende 24 uur)

TLE

VersSource: Space-Track

Epoch: Sep 14, 2026, 08:49 UTC

1 42835U 17042L   26257.36757553  .00002173  00000-0  16980-3 0  9999
2 42835  97.4940  50.3281 0008299 187.1390 172.9719 15.02088908499899

Volg WNISAT 1R in realtime met AllMySat

Download on the App Store